Regional Weather Roundup
Issued by NWS

Home | Current Version | Previous Version | Graphics & Text | Print | Product List | Glossary On
Versions: 1 2 3 4 5 6 7 8 9 10 11 12 13 14 15 16 17 18 19 20 21 22 23 24 25 26 27 28 29 30 31 32 33 34 35 36 37 38 39 40 41 42 43 44 45 46 47 48 49 50
000
ASUS43 KTOP 060008
RWRKS

WEATHER ROUNDUP FOR KANSAS
NATIONAL WEATHER SERVICE GOODLAND KS
700 PM CDT SUN JUL 05 2015

NOTE:  "FAIR" INDICATES FEW OR NO CLOUDS BELOW 12,000 FEET WITH NO
SIGNIFICANT WEATHER AND/OR OBSTRUCTIONS TO VISIBILITY.

KSZ001>006-013>018-027>032-041>047-060100-
NORTHWEST KANSAS

CITY           SKY/WX    TMP DP  RH WIND       PRES   REMARKS
GOODLAND       CLOUDY    95  54  25 S24G30    29.77F
6HR MIN TEMP:  94; 6HR MAX TEMP: 100;

HAYS           MOSUNNY   99  57  25 S23G31    29.78S HX  97
HILL CITY      PTSUNNY   98  58  26 S24G32    29.75R HX  97
6HR MIN TEMP:  98; 6HR MAX TEMP: 105;

RUSSELL        LGT RAIN  95  61  32 S24G31    29.77S HX  95
6HR MIN TEMP:  93; 6HR MAX TEMP:  99;

$$

KSZ061>065-074>080-084>089-060100-
SOUTHWEST KANSAS

CITY           SKY/WX    TMP DP  RH WIND       PRES   REMARKS
DODGE CITY     PTSUNNY   90  59  35 S18G28    29.85S
6HR MIN TEMP:  90; 6HR MAX TEMP:  95;

ELKHART          N/A     91  57  31 S18         N/A
GARDEN CITY    PTSUNNY   88  61  40 S15G24    29.83S
6HR MIN TEMP:  88; 6HR MAX TEMP:  94;

GREAT BEND     SUNNY     93  61  33 S20G26    29.81S
LIBERAL        MOSUNNY   93  61  33 S21G28    29.88F
PRATT          MOSUNNY   91  55  29 S16G26    29.86S
$$

KSZ066>073-081>083-090>101-060100-
SOUTHEAST KANSAS

CITY           SKY/WX    TMP DP  RH WIND       PRES   REMARKS
CHANUTE        MOSUNNY   90  73  57 S15       29.89S HX  98
6HR MIN TEMP:  88; 6HR MAX TEMP:  92;

COFFEYVILLE    SUNNY     91  74  57 S17G24    29.88S HX 100
6HR MIN TEMP:  88; 6HR MAX TEMP:  94;

HUTCHINSON     SUNNY     97  62  31 S20       29.82S HX  98
6HR MIN TEMP:  93; 6HR MAX TEMP: 101;

MEDICINE LODGE   N/A     96  63  33 SW16G24   29.82S HX  97
NEWTON         MOSUNNY   95  63  34 S20G25    29.86S HX  96
PARSONS        SUNNY     91  75  59 S10G20    29.89F HX 101
6HR MIN TEMP:  88; 6HR MAX TEMP:  92;

WICHITA INTL   MOSUNNY   95  64  35 S20G25    29.82F HX  97
6HR MIN TEMP:  93; 6HR MAX TEMP: 100;

WICHITA JABRA  SUNNY     93  66  40 S16G24    29.84S HX  96
6HR MIN TEMP:  90; 6HR MAX TEMP:  99;

WICHITA MCCONL SUNNY     94  68  42 SE22G29   29.84F HX  98
WINFIELD       SUNNY     93  67  42 S17       29.86F HX  96
6HR MIN TEMP:  92; 6HR MAX TEMP:  99;

$$

KSZ007>012-019>026-033>040-048>060-102>105-060100-
NORTHEAST KANSAS

CITY           SKY/WX    TMP DP  RH WIND       PRES   REMARKS
CONCORDIA      SUNNY     95  64  35 S15G23    29.77F HX  97
6HR MIN TEMP:  92; 6HR MAX TEMP:  97;

EMPORIA        SUNNY     91  69  48 S15G22    29.85F HX  96
6HR MIN TEMP:  81; 6HR MAX TEMP:  92;

LAWRENCE       SUNNY     89  73  59 SE12      29.86F HX  97
6HR MIN TEMP:  87; 6HR MAX TEMP:  92;

MANHATTAN      SUNNY     95  70  44 S16       29.80F HX 101
6HR MIN TEMP:  91; 6HR MAX TEMP:  98;

MARYSVILLE     SUNNY     90  73  58 SE12G21   29.80F HX  98
OLATHE IND     SUNNY     88  75  65 SE15      29.90S HX  97
6HR MIN TEMP:  84; 6HR MAX TEMP:  90;

OLATHE EXE     MOSUNNY   86  74  67 SE13      29.89F
6HR MIN TEMP:  82; 6HR MAX TEMP:  88;

SALINA         SUNNY     99  63  30 S16G26    29.79S HX 101
6HR MIN TEMP:  96; 6HR MAX TEMP: 103;

TOPEKA BILLARD SUNNY     91  73  55 SE13      29.85F HX  99
6HR MIN TEMP:  83; 6HR MAX TEMP:  92; 6HR PCP:  0.01;

TOPEKA FORBES  SUNNY     92  72  51 S13       29.86S HX  99
6HR MIN TEMP:  85; 6HR MAX TEMP:  93;

$$



USA.gov is the U.S. government's official web portal to all federal, state and local government web resources and services.